SL-16 DEB, 39908

Orbit data source: Space-Track

SL-16 DEB, 39908 is space debris in LEO originally from a launch on Fri, 26 Mar 1993 UTC launched from the Tyuratam Missile And Space Complex (TTMTR). Debris objects in space refer to the collection of defunct objects orbiting the Earth. Examples of debris include non-operational satellites, rocket bodies, and fragments generated from explosions, collisions, or faulty payload assembly.

Loading next visibility...
Identifier
39908, 1993-016CJ
Orbit
LEO
Country
Flag of CISCIS
Related business
Manufacturer
Unknown
Mission
Spacecraft
Bus & Motor
Unknown
Mass
Unknown
Launch date (UTC)
1993-03-26 (33 years ago)
Launch vehicle
Unknown
Launch site
Tyuratam Missile And Space Complex (TTMTR)
Object type
Payload
Rocket body
Debris
Shape & HBR
Unknown shape, 0.1 m
Radar Cross Section
Small (<0.1 m²)

Expand to show TLE details & history
Last TLE update: 2 days ago

TLE from 2 days ago
0 SL-16 DEB
1 39908U 93016CJ  26253.46767171  .00000346  00000-0  16189-3 0  9996
2 39908  71.0044 322.0871 0011415 250.0321 109.9579 14.27180687637599
Epoch: 2026-09-10T11:13Z
TLE epoch observation values (Epoch: 2026-09-10T11:13:26.835Z)
Latitude
-0.00004°
Longitude
164.22032°
Altitude
806.39 km
Speed
7.449 km/s
True Right ascension
21h 28m 20s
True Declination
0° 00' 00"
Sunlit
Object was in full shadow at epoch
Visualization orbit readout
Latitude
Unknown
Longitude
Unknown
Altitude
Unknown
Speed
Unknown
Apparent Right ascension
Unknown
Apparent Declination
Unknown
Sunlit
N/A
Visualization observer readout
Local Sidereal Time
12:40:37
Azimuth
Unknown
Elevation
Unknown
Doppler factor
Unknown
Orbital elements
Apogee altitude
807.275 km
Perigee altitude
790.89 km
Semi-major axis
7,177.22 km
Eccentricity
0.00114
Inclination
71.0044°
RAAN
322.0871°
Arg. of periapsis
250.0321°
True anomaly
110.08079°
Mean anomaly
109.9579°
Eccentric anomaly
110.01935°
Mean motion
3.56951 °/min
Orbital period
100.85 mins
BSTAR
0.00016189
Loading maneuver chart data...
Computing Atmospheric mass density...
Loading historical data...
Loading historical data...
Loading historical data...
Loading historical data...
Loading historical data...
Loading historical data...
Loading historical data...

Documentation

Showing up to 5 results
|